Vertical_Velocity
-0 -7 1 2 -0 -0 -2 -4 -3 -2 -0 -1 -3 1 1 3 5 2 3 -1 -8 -7
-0 -5 -2 -1 1 2 -2 -3 -3 2 -2 1 -1 -1 3 -0 -1 3 10 0 6 7
-3 -3 4 -1 0 3 4 2 1 -6 -0 -2 -2 2 1 1 -2 3 7 10 2 8
0 -1 4 -5 2 4 3 1 1 4 2 -8 -7 3 -1 0 0 1 2 4 10 -5
-2 -2 3 6 2 3 -1 4 4 0 8 4 1 -2 2 -6 0 -3 3 11 1 2
-3 -2 -3 -5 -4 -3 0 3 1 -1 2 -5 -1 2 -0 0 -2 -5 3 3 4 10
-2 -2 2 -1 -4 1 -2 0 -3 0 10 5 -1 4 -2 5 3 -2 14 5 4 5
-0 2 1 1 2 2 3 0 -2 3 7 -1 -2 -2 -1 -5 4 -1 5 18 12 6
-1 1 1 2 1 4 5 1 2 -3 -1 -6 -4 -3 3 1 -8 3 5 1 14 14
-2 -2 -2 -0 1 1 -2 4 -6 0 -2 -2 -0 -3 2 3 -3 -12 -2 2 17 -0
-1 -1 -1 -2 -4 -1 -4 -4 -5 1 -5 7 -6 -1 2 0 -1 0 -4 -8 4 -3
-2 -2 -2 -4 -6 -1 0 1 -4 -5 -2 -6 -0 6 11 0 2 -2 -7 -9 1 8
-2 -2 -2 -1 -2 -1 -2 -1 0 -0 -1 -2 -7 -3 3 -8 -2 10 4 -2 6 3
-1 -3 -1 -0 1 1 -0 3 0 1 3 3 2 5 0 1 4 -2 -3 -11 -17 -13
Height
1472 1468 1461 1453 1444 1436 1428 1421 1415 1410 1406 1400 1396 1395 1396 1396 1399 1402 1402 1401 1406 1410
1471 1466 1459 1451 1443 1435 1427 1421 1413 1406 1400 1395 1389 1388 1388 1388 1389 1392 1395 1396 1398 1400
1472 1465 1458 1450 1442 1433 1425 1418 1411 1404 1397 1390 1385 1380 1378 1379 1381 1384 1384 1386 1387 1388
1470 1464 1457 1449 1441 1431 1423 1416 1409 1402 1395 1388 1382 1374 1371 1370 1372 1373 1377 1377 1380 1379
1469 1463 1456 1448 1440 1432 1425 1418 1409 1401 1393 1384 1378 1372 1366 1364 1364 1364 1366 1369 1372 1372
1468 1463 1456 1449 1442 1435 1426 1418 1410 1401 1392 1384 1378 1370 1363 1363 1362 1361 1361 1361 1363 1366
1469 1463 1457 1451 1444 1438 1430 1420 1412 1404 1394 1383 1377 1371 1366 1361 1360 1361 1360 1357 1356 1357
1470 1464 1458 1452 1445 1438 1431 1423 1416 1407 1397 1387 1380 1375 1372 1367 1361 1359 1361 1358 1352 1350
1471 1465 1459 1453 1446 1439 1432 1425 1417 1409 1402 1394 1388 1382 1378 1375 1367 1364 1360 1356 1354 1349
1472 1466 1460 1455 1449 1442 1435 1429 1422 1416 1408 1402 1396 1391 1386 1379 1374 1371 1364 1360 1356 1351
1474 1468 1462 1457 1452 1446 1439 1434 1428 1422 1416 1409 1403 1400 1394 1386 1382 1375 1372 1367 1364 1360
1476 1471 1465 1459 1455 1450 1444 1439 1433 1429 1422 1417 1412 1408 1402 1393 1386 1383 1378 1374 1369 1365
1479 1475 1469 1464 1459 1454 1448 1444 1439 1435 1429 1424 1418 1413 1406 1401 1397 1389 1384 1382 1375 1369
1481 1477 1473 1468 1463 1457 1452 1449 1444 1440 1435 1430 1424 1418 1411 1404 1397 1394 1391 1387 1381 1374